This is the latest recevied weather packets stored in our database for station/object K5NAN. If no packets are shown the sender has not sent any weather packets the latest 10 day(s).
| Time | Temp. | Humidity | Pressure | Rain* | Wind** | Luminosity | Snow |
|---|---|---|---|---|---|---|---|
| 1777593015 | 16.11° C | 76% | 1012.2 hPa | 0 mm | - | 60 W/m² | - |
| 1777592709 | 16.11° C | 74% | 1012.4 hPa | 0 mm | - | 55 W/m² | - |
| 1777592405 | 16.11° C | 74% | 1012.4 hPa | 0 mm | - | 41 W/m² | - |
| 1777592100 | 16.11° C | 74% | 1012.3 hPa | 0 mm | - | 34 W/m² | - |
| 1777591798 | 16.11° C | 74% | 1012 hPa | 0 mm | - | 66 W/m² | - |
| 1777591494 | 16.11° C | 74% | 1011.9 hPa | 0 mm | - | 62 W/m² | - |
| 1777591190 | 16.11° C | 74% | 1011.9 hPa | 0 mm | - | 37 W/m² | - |
| 1777590884 | 16.67° C | 73% | 1011.9 hPa | 0 mm | - | 67 W/m² | - |
| 1777590582 | 16.67° C | 73% | 1012.2 hPa | 0 mm | - | 87 W/m² | - |
| 1777590277 | 16.67° C | 73% | 1011.9 hPa | 0 mm | - | 107 W/m² | - |
| 1777589975 | 16.11° C | 73% | 1012.1 hPa | 0 mm | - | 89 W/m² | - |
| 1777589671 | 16.11° C | 74% | 1012 hPa | 0 mm | - | 83 W/m² | - |
| 1777589369 | 16.11° C | 74% | 1012 hPa | 0 mm | - | 79 W/m² | - |
| 1777589066 | 16.11° C | 74% | 1012.1 hPa | 0 mm | - | 72 W/m² | - |
| 1777588762 | 16.11° C | 75% | 1012.2 hPa | 0 mm | - | 93 W/m² | - |
| 1777588457 | 16.11° C | 74% | 1012.3 hPa | 0 mm | - | 74 W/m² | - |
| 1777588152 | 16.11° C | 74% | 1012.2 hPa | 0 mm | - | 56 W/m² | - |
| 1777587849 | 16.11° C | 74% | 1012.4 hPa | 0 mm | - | 72 W/m² | - |
| 1777587549 | 16.11° C | 75% | 1012.5 hPa | 0 mm | - | 61 W/m² | - |
| 1777587245 | 16.11° C | 75% | 1012.5 hPa | 0 mm | - | 56 W/m² | - |
| 1777586940 | 16.11° C | 75% | 1012.5 hPa | 0 mm | - | 51 W/m² | - |
| 1777586636 | 16.11° C | 75% | 1012.8 hPa | 0 mm | - | 47 W/m² | - |
| 1777586332 | 16.11° C | 75% | 1012.9 hPa | 0 mm | - | 48 W/m² | - |
| 1777586031 | 16.11° C | 74% | 1012.9 hPa | 0 mm | - | 42 W/m² | - |
| 1777585731 | 16.11° C | 74% | 1012.9 hPa | 0 mm | - | 56 W/m² | - |
* Rain latest hour (hover to see other rain measurements)
** Current wind speed in m/s (hover to see current wind gust speed)